[[{"header":{"parameterUnit":"m.s-1","parameterCategory":1,"la1":30.2991,"la2":30.254,"lo1":-89.0895,"lo2":-89.0444,"dy":0.0017,"dx":0.0017,"nx":28,"ny":28,"refTime":"2024-03-03T09:00:00:Z","depth":0,"parameterNumber":2,"parameterNumberName":"U-component_of_WINDS"},"data":[0,0,0,0,0,0,0,0,0,0,0,0,0,0,0,0,0,0,0,0,0,0,0,0,0,0,0,0,0,0,0,0,0,0,0,0,0,0,0,0,0,0,0,0,0,0,0,0,0,0,0,0,0,0,0,0,0,0,-4.5525,-4.5525,0,-4.5566,-4.5566,-4.5567,-4.55,-4.5498,-4.5495,-4.5493,-4.5535,-4.5538,-4.5541,0,0,0,0,0,0,0,0,0,0,0,0,0,-4.539,-4.5393,-4.5525,-4.5525,-4.5526,-4.5566,-4.5566,-4.5567,-4.55,-4.5497,-4.5495,-4.5492,-4.5534,-4.5537,-4.5541,0,0,0,0,0,0,0,0,0,0,0,0,0,-4.5442,-4.5394,-4.5525,-4.5497,-4.5495,-4.5566,-4.5566,-4.5567,-4.5501,-4.5497,-4.5494,-4.5491,-4.5532,-4.5537,-4.5542,-4.5641,0,0,-4.5557,-4.5559,0,0,0,0,0,0,0,0,-4.5439,-4.5447,-4.5501,-4.5499,-4.5497,-4.5524,-4.5534,-4.5592,-4.5502,-4.5499,-4.5493,-4.5489,-4.5534,-4.5538,-4.5554,-4.5643,-4.5644,-4.5557,-4.556,-4.5562,-4.5564,0,0,0,0,0,0,0,-4.5435,-4.5444,-4.5541,-4.5502,-4.55,-4.5484,-4.5487,-4.5545,-4.5535,-4.5499,-4.5494,-4.55,-4.5532,-4.5549,-4.5554,-4.5645,-4.5557,-4.5561,-4.5564,-4.5566,-4.5819,-4.5822,0,0,0,0,0,0,-4.5435,-4.5442,-4.554,-4.5542,-4.5459,-4.5489,-4.5493,-4.5519,-4.5534,-4.5533,-4.5503,-4.5497,-4.5543,-4.5549,-4.5555,-4.5672,-4.5562,-4.5567,-4.5569,-4.5815,-4.582,-4.5824,0,0,0,0,0,0,-4.5432,-4.5444,-4.5538,-4.5491,-4.5502,-4.5495,-4.5525,-4.5522,-4.5538,-4.5537,-4.5535,-4.5522,-4.554,-4.5549,-4.562,-4.5673,-4.5569,-4.5573,-4.5811,-4.5817,-4.5822,-4.5907,0,0,0,0,0,0,-4.5429,-4.5444,-4.5481,-4.5492,-4.5504,-4.5602,-4.5528,-4.5525,-4.5547,-4.5539,-4.5554,-4.5554,-4.5538,-4.5613,-4.5625,-4.5678,-4.5577,-4.5806,-4.5813,-4.582,-4.59,-4.5915,-4.5928,0,0,0,0,0,-4.5424,-4.5502,-4.5483,-4.5495,-4.555,-4.5605,-4.5612,-4.5593,-4.5552,-4.5589,-4.5589,-4.5553,-4.5666,-4.5621,-4.5634,-4.5689,-4.5802,-4.5811,-4.5819,-4.5893,-4.5912,-4.5928,0,0,0,0,0,0,-4.5496,-4.5503,-4.5481,-4.5566,-4.5586,-4.5594,-4.564,-4.5613,-4.5644,-4.5636,-4.5611,-4.5615,-4.5692,-4.5698,-4.5648,-4.5786,-4.5727,-4.5739,-4.5779,-4.5797,-4.5811,-4.5807,-4.5581,0,0,0,0,0,-4.5522,-4.5566,-4.557,-4.5644,-4.5655,-4.5646,-4.5669,-4.5653,-4.5672,-4.568,-4.5685,-4.5705,-4.5745,-4.5772,-4.5808,-4.5901,-4.5904,-4.5945,-4.596,-4.5972,-4.5981,-4.6032,-4.6051,-4.5852,-4.5852,-4.5852,0,0,-4.5575,-4.5585,-4.5614,-4.5659,-4.5672,-4.5718,-4.5653,-4.5705,-4.5739,-4.5688,-4.5756,-4.5761,-4.5782,-4.5865,-4.5902,-4.5872,-4.6037,-4.5983,-4.5992,-4.5995,-4.6043,-4.6062,-4.6078,-4.5858,-4.5857,-4.5856,0,0,-4.5696,-4.5708,-4.5771,-4.5786,-4.5808,-4.5802,-4.5818,-4.5831,-4.5832,-4.5901,-4.5864,-4.5905,-4.5974,-4.5991,-4.6008,-4.614,-4.6108,-4.6153,-4.6227,-4.6277,-4.6292,-4.6306,-4.6353,-4.637,-4.6163,-4.6163,-4.6163,0,-4.5759,-4.5827,-4.5807,-4.5862,-4.5883,-4.5841,-4.5905,-4.5921,-4.5953,-4.5969,-4.5936,-4.6024,-4.6035,-4.6122,-4.6154,-4.617,-4.6187,-4.6149,-4.6292,-4.6306,-4.6318,-4.6362,-4.638,-4.6168,-4.6168,-4.6167,-4.6167,0,-4.5904,-4.5952,-4.6001,-4.6035,-4.6062,-4.6121,-4.6111,-4.6141,-4.6124,-4.6122,-4.6193,-4.6206,-4.6245,-4.6265,-4.6248,-4.635,-4.6331,-4.6296,-4.6236,-4.6342,-4.6384,-4.6401,-4.6176,-4.6174,-4.6172,-4.6171,0,0,-4.6067,-4.6092,-4.611,-4.6125,-4.6148,-4.6185,-4.6244,-4.6283,-4.6309,-4.6334,-4.6383,-4.6444,-4.6412,-4.6433,-4.6418,-4.6462,-4.6566,-4.6421,-4.6421,-4.6447,-4.668,-4.6706,-4.6726,-4.6546,-4.6549,-4.6552,-4.6678,0,-4.6187,-4.6288,-4.6273,-4.637,-4.6415,-4.6378,-4.6429,-4.6449,-4.645,-4.6488,-4.6489,-4.6533,-4.6488,-4.65,-4.6542,-4.6544,-4.6612,-4.6535,-4.6591,-4.6593,-4.6585,-4.6747,-4.6774,-4.6892,-4.6694,-4.6697,-4.6699,0,-4.6339,-4.6371,-4.6473,-4.6491,-4.6509,-4.6555,-4.6591,-4.6629,-4.6651,-4.6649,-4.6674,-4.6652,-4.6711,-4.6653,-4.6735,-4.6683,-4.6706,-4.6711,-4.6715,-4.6717,-4.6651,-4.6753,-4.6929,-4.6946,-4.6724,-4.6722,-4.672,0,-4.6447,-4.6516,-4.6586,-4.6601,-4.6623,-4.6657,-4.6668,-4.6687,-4.6713,-4.6744,-4.6761,-4.6799,-4.682,-4.6851,-4.684,-4.6798,-4.6925,-4.6865,-4.6925,-4.6925,-4.6951,-4.6949,-4.7132,-4.6969,-4.6968,-4.6968,-4.6968,0,-4.6581,-4.6645,-4.6635,-4.6678,-4.6749,-4.6733,-4.6804,-4.6811,-4.6829,-4.6873,-4.6844,-4.6886,-4.687,-4.6912,-4.6905,-4.6974,-4.6984,-4.6984,-4.6981,-4.6986,-4.6986,-4.6998,-4.6989,-4.6973,-4.6972,-4.6971,-4.697,0,-4.6712,-4.6709,-4.6783,-4.6799,-4.6805,-4.6857,-4.6871,-4.6912,-4.6912,-4.6969,-4.6981,-4.6981,-4.7029,-4.7023,-4.7076,-4.7071,-4.7157,-4.7145,-4.7149,-4.7146,-4.7206,-4.72,-4.7402,-4.7427,-4.7249,-4.7251,-4.7252,0,-4.6797,-4.6846,-4.6868,-4.6896,-4.691,-4.6955,-4.6981,-4.6969,-4.6997,-4.7029,-4.7066,-4.7112,-4.7147,-4.7226,-4.7231,-4.7272,-4.726,-4.7328,-4.7265,-4.7269,-4.726,-4.7256,-4.7261,-4.7339,-4.7341,-4.7343,-4.7344,0,-4.6948,-4.6945,-4.6983,-4.7023,-4.7056,-4.7086,-4.7113,-4.7138,-4.7128,-4.7162,-4.7212,-4.7239,-4.7295,-4.7341,-4.738,-4.7392,-4.7367,-4.7364,-4.738,-4.7384,-4.7385,-4.7385,-4.7182,-4.7359,-4.7357,-4.7356,-4.7356,-4.7355,-4.7058,-4.71,-4.7123,-4.7168,-4.7188,-4.7215,-4.7255,-4.7261,-4.7302,-4.7346,-4.7337,-4.7393,-4.7417,-4.7467,-4.7484,-4.7527,-4.7502,-4.7525,-4.7531,-4.7536,-4.7543,-4.738,-4.7535,-4.7534,-4.7534,-4.7534,-4.7533,0,-4.7206,-4.722,-4.7262,-4.7302,-4.7339,-4.7314,-4.7344,-4.7375,-4.7425,-4.745,-4.7486,-4.7544,-4.7589,-4.7599,-4.7643,-4.7676,-4.7666,-4.7688,-4.7684,-4.7687,-4.7563,-4.7545,-4.7695,-4.7695,-4.7695,-4.7695,-4.7695,-4.7695,-4.7287,-4.7357,-4.7357,-4.7437,-4.7451,-4.7506,-4.7525,-4.755,-4.757,-4.7636,-4.7674,-4.7681,-4.77,-4.7746,-4.7786,-4.7788,-4.7805,-4.7832,-4.7829,-4.7712,-4.7696,-4.768,-4.7663,-4.7836,-4.7836,-4.7949,-4.795,-4.7951]},{"header":{"parameterUnit":"m.s-1","parameterCategory":1,"la1":30.2991,"la2":30.254,"lo1":-89.0895,"lo2":-89.0444,"dy":0.0017,"dx":0.0017,"nx":28,"ny":28,"refTime":"2024-03-03T09:00:00:Z","depth":0,"parameterNumber":3,"parameterNumberName":"V-component_of_WINDS"},"data":[0,0,0,0,0,0,0,0,0,0,0,0,0,0,0,0,0,0,0,0,0,0,0,0,0,0,0,0,0,0,0,0,0,0,0,0,0,0,0,0,0,0,0,0,0,0,0,0,0,0,0,0,0,0,0,0,0,0,1.1994,1.1995,0,1.2086,1.2088,1.2089,1.2158,1.2159,1.216,1.216,1.2253,1.2255,1.2257,0,0,0,0,0,0,0,0,0,0,0,0,0,1.1877,1.1879,1.1994,1.1995,1.1996,1.2086,1.2088,1.2089,1.2158,1.2159,1.216,1.2161,1.2252,1.2255,1.2257,0,0,0,0,0,0,0,0,0,0,0,0,0,1.1944,1.1879,1.1994,1.2042,1.2047,1.2086,1.2088,1.2089,1.2158,1.2159,1.216,1.2161,1.2252,1.2254,1.2257,1.2255,0,0,1.2266,1.2267,0,0,0,0,0,0,0,0,1.194,1.1948,1.2034,1.2039,1.2044,1.2112,1.208,1.2145,1.2158,1.2116,1.216,1.2162,1.2205,1.2212,1.2227,1.226,1.2264,1.2266,1.2268,1.2269,1.227,0,0,0,0,0,0,0,1.1936,1.1945,1.203,1.2035,1.2041,1.2059,1.2069,1.2093,1.2154,1.212,1.2125,1.2135,1.2208,1.2224,1.223,1.2265,1.2266,1.2268,1.227,1.2271,1.2303,1.2302,0,0,0,0,0,0,1.1924,1.194,1.2028,1.2033,1.1994,1.206,1.2072,1.2089,1.2154,1.2165,1.2134,1.2138,1.2219,1.2226,1.2233,1.2237,1.2269,1.2272,1.2273,1.2304,1.2303,1.2302,0,0,0,0,0,0,1.1921,1.1931,1.2024,1.1988,1.2002,1.2061,1.208,1.2091,1.2107,1.2165,1.2176,1.2139,1.222,1.2229,1.225,1.2241,1.2273,1.2275,1.2305,1.2304,1.2302,1.2244,0,0,0,0,0,0,1.1917,1.1929,1.1929,1.1988,1.2003,1.2039,1.2079,1.2092,1.2111,1.2117,1.2173,1.2183,1.2221,1.2245,1.2253,1.2246,1.2278,1.2306,1.2304,1.2303,1.2247,1.2241,1.2236,0,0,0,0,0,1.1913,1.1908,1.1929,1.1939,1.2004,1.2038,1.2047,1.2092,1.211,1.2111,1.2149,1.2181,1.2241,1.2247,1.2256,1.225,1.2307,1.2305,1.2303,1.2249,1.2242,1.2236,0,0,0,0,0,0,1.1845,1.1916,1.194,1.1954,1.199,1.205,1.2052,1.2083,1.2113,1.2117,1.2172,1.2184,1.2199,1.2226,1.2232,1.2252,1.2278,1.2278,1.2234,1.2228,1.2222,1.2216,1.228,0,0,0,0,0,1.1832,1.1854,1.1915,1.1921,1.1938,1.1992,1.2008,1.204,1.2079,1.2094,1.2133,1.2169,1.2197,1.2213,1.2242,1.2251,1.2265,1.2251,1.2245,1.224,1.224,1.2249,1.2244,1.2296,1.2296,1.2296,0,0,1.1805,1.1847,1.1857,1.1909,1.194,1.1962,1.2004,1.2025,1.2042,1.2097,1.212,1.215,1.2194,1.2209,1.2218,1.2232,1.2229,1.2238,1.2234,1.2236,1.2247,1.2242,1.2237,1.2295,1.2295,1.2295,0,0,1.1767,1.18,1.1811,1.1842,1.1889,1.1925,1.1927,1.1984,1.2006,1.203,1.2073,1.2093,1.2139,1.2169,1.219,1.2166,1.2197,1.2173,1.2144,1.2152,1.2148,1.2145,1.2138,1.2135,1.2172,1.2172,1.2172,0,1.1728,1.1763,1.1812,1.1831,1.1853,1.1906,1.1917,1.1945,1.1998,1.2012,1.2028,1.2088,1.212,1.2145,1.2139,1.2154,1.2159,1.2168,1.2145,1.2142,1.214,1.2134,1.2131,1.2169,1.2169,1.217,1.217,0,1.1713,1.1736,1.1739,1.1791,1.1814,1.1828,1.188,1.1897,1.1927,1.1962,1.1986,1.2028,1.2066,1.2074,1.2103,1.2103,1.2111,1.2135,1.2162,1.2131,1.2127,1.2125,1.2165,1.2166,1.2167,1.2167,0,0,1.1635,1.1715,1.1716,1.1741,1.1798,1.1817,1.1835,1.1874,1.1888,1.1923,1.194,1.1978,1.2002,1.2026,1.2059,1.2066,1.2046,1.2089,1.2091,1.2081,1.2051,1.2034,1.2031,1.2067,1.2067,1.2067,1.2048,0,1.1607,1.1643,1.1689,1.1709,1.1733,1.1783,1.1799,1.1836,1.1869,1.1893,1.1929,1.1956,1.1984,1.1999,1.2008,1.2047,1.2041,1.2048,1.2084,1.2085,1.2073,1.2028,1.201,1.1991,1.2047,1.2046,1.2046,0,1.158,1.1615,1.1638,1.1695,1.1707,1.172,1.1761,1.1783,1.1826,1.185,1.1877,1.1914,1.1936,1.1959,1.1991,1.1994,1.2012,1.2033,1.2033,1.204,1.2065,1.2035,1.1986,1.1983,1.2044,1.2044,1.2044,0,1.1524,1.1576,1.1597,1.1617,1.1683,1.1692,1.172,1.1764,1.1785,1.182,1.1835,1.1871,1.1891,1.1919,1.1964,1.1977,1.1992,1.2018,1.2013,1.2012,1.2015,1.2014,1.1969,1.2023,1.2023,1.2023,1.2023,0,1.1489,1.1502,1.1573,1.1586,1.1602,1.1654,1.1669,1.1701,1.174,1.1761,1.1806,1.1825,1.1883,1.1908,1.1943,1.1965,1.1973,1.1994,1.2003,1.1991,1.1988,1.2004,1.2007,1.2022,1.2022,1.2022,1.2022,0,1.1429,1.1477,1.1504,1.1566,1.1581,1.1591,1.1643,1.1658,1.1694,1.172,1.1729,1.1785,1.1818,1.1865,1.1911,1.1935,1.1952,1.1967,1.1938,1.1944,1.1937,1.1938,1.1901,1.19,1.1952,1.1952,1.1951,0,1.1405,1.1416,1.1479,1.1497,1.1524,1.1552,1.1574,1.1626,1.1647,1.1699,1.1708,1.1744,1.1776,1.1825,1.187,1.1906,1.1923,1.1907,1.1928,1.1916,1.1925,1.1924,1.1927,1.1903,1.1902,1.1901,1.1901,0,1.1357,1.1381,1.1412,1.1452,1.1478,1.1511,1.1547,1.1559,1.1618,1.164,1.1675,1.1699,1.1748,1.1784,1.1826,1.1855,1.1888,1.1894,1.1895,1.1883,1.1867,1.1877,1.1927,1.1895,1.1895,1.1896,1.1896,1.1896,1.1316,1.133,1.1377,1.141,1.1443,1.1476,1.1494,1.1532,1.1562,1.1607,1.1635,1.1668,1.1713,1.1774,1.1801,1.1828,1.1842,1.1842,1.1843,1.1843,1.1839,1.1861,1.1835,1.1836,1.1836,1.1836,1.1836,0,1.1273,1.1306,1.1337,1.1386,1.1413,1.1442,1.1484,1.1504,1.1533,1.1572,1.1603,1.1643,1.1679,1.1727,1.1766,1.1778,1.1795,1.1787,1.1787,1.1794,1.1824,1.182,1.1773,1.1773,1.1773,1.1773,1.1773,1.1773,1.1254,1.1279,1.1308,1.135,1.1383,1.1417,1.1439,1.1469,1.1501,1.1544,1.1575,1.1606,1.1649,1.1692,1.1726,1.1739,1.1752,1.174,1.1758,1.1786,1.1791,1.1797,1.1794,1.1742,1.1742,1.1726,1.1726,1.1726]}]]